This demonstration page uses our WeatherBlox Daily Observations layout. Learn more.

Left ArrowRight Arrow

Hourly Observations for August 1, 2015

Temp ( °F °C ) Dew Point ( °F °C ) Humidity (%) Winds ( mph kmh ) Pressure ( in mb ) Visibility ( mi km ) Precip ( " mm )
12:00 am 00:00 Mostly Clear with Nearby Thunderstorms 70 21.1 65 18.5 85 85 S 7 11 29.89 1012 10 16 N/A
12:15 am 00:15 Partly Cloudy with Thunderstorms 77 25 62 16.7 60 60 N N/A 29.94 1014 10 16 N/A
12:51 am 00:51 Mostly Cloudy with Light Thunderstorms 73 22.8 67 19.4 81 81 N 8 13 29.93 1014 10 16 0.04 1.02
1:04 am 01:04 Partly Cloudy with Nearby Thunderstorms 72 22 66 19 83 83 N 14 22 29.94 1014 10 16 N/A
1:32 am 01:32 Clear 74 23.3 66 18.9 76 76 N 12 19 29.88 1012 10 16 N/A
1:51 am 01:51 Clear 75 23.9 65 18.3 71 71 N N/A 29.43 997 10 16 N/A
2:51 am 02:51 Clear 73 22.8 66 18.9 79 79 SSW 9 15 29.87 1011 10 16 N/A
3:51 am 03:51 Clear 73 22.8 66 18.9 79 79 N 5 7 29.86 1011 10 16 N/A
4:51 am 04:51 Clear 71 21.7 67 19.4 87 87 E 6 9 29.88 1012 10 16 N/A
5:51 am 05:51 Sunny 72 22.2 65 18.3 79 79 E 6 9 29.91 1013 10 16 N/A
6:51 am 06:51 Sunny 75 23.9 65 18.3 71 71 SE 9 15 29.91 1013 10 16 N/A
7:51 am 07:51 Sunny 79 26.1 63 17.2 58 58 SSE 9 15 29.92 1013 10 16 N/A
8:51 am 08:51 Sunny 82 27.8 62 16.7 51 51 SE 8 13 29.93 1013 10 16 N/A
9:51 am 09:51 Sunny 86 30 61 16.1 43 43 VRB 6 9 29.91 1013 10 16 N/A
10:51 am 10:51 Mostly Sunny 89 31.7 59 15 36 36 S 7 11 29.89 1012 10 16 N/A
11:51 am 11:51 Sunny 93 33.9 59 15 32 32 ESE 9 15 29.86 1011 10 16 N/A
12:51 pm 12:51 Sunny 96 35.6 58 14.4 28 28 NNW 6 9 29.83 1010 10 16 N/A
1:28 pm 13:28 Partly Cloudy with Nearby Thunderstorms 95 35 57 13.9 28 28 VRB 3 6 29.68 1005 10 16 N/A
1:51 pm 13:51 Sunny with Nearby Thunderstorms 96 35.6 57 13.9 27 27 VRB 3 6 29.79 1009 10 16 N/A
2:21 pm 14:21 Sunny 96 35.6 59 15 29 29 WNW 15 24 29.65 1004 10 16 N/A
2:51 pm 14:51 Mostly Sunny 94 34.4 57 13.9 29 29 VRB 3 6 29.78 1008 10 16 N/A
3:01 pm 15:01 Partly Cloudy with Nearby Thunderstorms 96 35.6 57 13.9 27 27 W 10 17 29.65 1004 10 16 N/A
3:37 pm 15:37 Sunny with Thunderstorms 94 34.4 57 13.9 29 29 VRB 3 6 29.75 1007 10 16 N/A
3:49 pm 15:49 Sunny 91 33 57 14 32 32 ESE 9 15 29.68 1005 10 16 N/A
3:51 pm 15:51 Sunny 92 33.3 58 14.4 32 32 SE 7 11 29.77 1008 10 16 N/A
4:51 pm 16:51 Sunny 95 35 57 13.9 28 28 VRB 5 7 29.74 1007 10 16 N/A
5:51 pm 17:51 Sunny 89 31.7 58 14.4 35 35 SE 20 31 29.78 1009 10 16 N/A
6:51 pm 18:51 Sunny 87 30.6 60 15.6 40 40 ESE 10 17 29.77 1008 10 16 N/A
7:51 pm 19:51 Clear 87 30.6 59 15 39 39 E 9 15 29.78 1008 10 16 N/A
8:51 pm 20:51 Clear 86 30 59 15 40 40 E 9 15 29.79 1009 10 16 N/A
9:51 pm 21:51 Clear 86 30 58 14.4 39 39 E 9 15 29.79 1009 10 16 N/A
10:51 pm 22:51 Clear 85 29.4 57 13.9 39 39 E 10 17 29.79 1009 10 16 N/A
11:51 pm 23:51 Clear 83 28.3 57 13.9 41 41 E 7 11 29.79 1009 10 16 N/A

Powered by AerisWeather